Aérodrome :
LOGIN :

S'inscrire | Disclaimer

   EN    FR    IT 

 










Légende :    VFR   VFR Marginal   IFR   IFR Intensif   IFR Très Intensif
Visi : 
Plafond : 
>= 8 km
>= 3000ft
5 à 8 km
1000 à 3000 ft
1500m à 5 km
500 à 1000 ft
800 à 1500m
200 à 500 ft
< 800m
< 200 ft
Symboles :   Orages  Brouillard  Fortes neiges  Fortes précipitations  Vent > 20 kt
SIGMETs :   Divers  Orages  Givrage  Turbulence  Onde Orograph.  Cendres Volcan.







- Altitude de l'aérodrome : 9 ft
- Code IATA : MIR


DTMB - Habib Bourguliba Int. Monastir

DERNIER METAR :
  • 210400Z 18004KT 130V210 5000 TS SHRA SCT016 FEW026CB BKN030 12/11 Q1012

METARs EXPIRÉS :
  • 210330Z 13004KT 5000 TS SHRA SCT016 FEW026CB BKN030 12/12 Q1011
  • 210300Z 09007KT 5000 TS SHRA SCT016 FEW026CB BKN030 12/12 Q1012
  • 210200Z 09022KT 5000 TS SHRA SCT016 FEW026CB BKN030 13/12 Q1011
  • 210130Z 08023G33KT 050V120 5000 TS SHRA SCT016 FEW026CB BKN030 14/13 Q1011

TAF TAF DTMB
Valide du 21 à 00h jusqu'au 22 à 00h UTC


202300Z 2100/2124 06020G30KT 9999 SCT016 BKN030
TEMPO 2100/2118 4000 TS SHRA FEW030CB
BECMG 2106/2108 13012KT
BECMG 2118/2120 VRB04KT
Pas de NOTAMs connus pour ce terrain.



MET'MAP, la Météo Aéronautique d'un coup d'oeil ! - Copyright ORBIFLY Décembre 2007 - Disclaimer

ORBIFLY MET'MAP TEAM :

Programmation & Développement : Alexandra Zaïnal
Conception & Développement : Baudouin d'Aumeries
Co-Programmation & Développement : Marc-Olivier Méhu
Soutien technique & logistique : Manuel Goepfert

Contact : metmap@orbifly.com




SOURCES & CREDITS :

   NOAA